FW0373 Weather Reports


time (UTC)temp
F
wind
direction
speed
knots
gust
knots
rain 1hr
in
rain 24hr
in
rain mn
in
humidity
%
barometer
mb
20260901163300 91 135 4.3 8.7 0.00 0.00 0.00 60 1012.8
20260901162314 91 157 5.2 7.8 0.00 0.00 0.00 60 1012.6
20260901161249 90 157 2.6 5.2 0.00 0.00 0.00 62 1012.8
20260901155328 89 112 2.6 7.0 0.00 0.00 0.00 63 1012.7
20260901154324 89 90 4.3 9.6 0.00 0.00 0.00 64 1012.5
20260901152341 87 90 2.6 6.1 0.00 0.00 0.00 67 1012.7
20260901150253 85 90 3.5 7.0 0.00 0.00 0.00 70 1012.7
20260901145256 84 90 2.6 6.1 0.00 0.00 0.00 72 1012.6
20260901144304 84 90 4.3 7.8 0.00 0.00 0.00 72 1012.5
20260901143245 83 90 2.6 7.8 0.00 0.00 0.00 74 1012.3
20260901142246 82 67 2.6 6.1 0.00 0.00 0.00 75 1012.2
20260901141306 81 67 2.6 3.5 0.00 0.00 0.00 77 1012.2
20260901140250 80 67 1.7 3.5 0.00 0.00 0.00 79 1012.1
20260901135244 80 0.0 2.6 0.00 0.00 0.00 80 1012.0
20260901134245 79 0.0 0.0 0.00 0.00 0.00 79 1012.0
20260901133311 79 0.0 0.0 0.00 0.00 0.00 79 1012.0
20260901132244 79 0.0 0.0 0.00 0.00 0.00 79 1011.9
20260901131246 79 0.0 0.0 0.00 0.00 0.00 78 1011.7
20260901130244 79 0.0 0.0 0.00 0.00 0.00 78 1011.5
20260901125246 79 0.0 1.7 0.00 0.00 0.00 78 1011.4
20260901124244 79 0.0 0.0 0.00 0.00 0.00 78 1011.5
20260901123244 79 0.0 0.0 0.00 0.00 0.00 78 1011.6
20260901122306 79 0.0 0.0 0.00 0.00 0.00 77 1011.4
20260901121247 80 0.0 0.0 0.00 0.00 0.00 77 1011.4
20260901120310 80 0.0 0.0 0.00 0.00 0.00 76 1011.2
20260901115306 80 0.0 0.0 0.00 0.00 0.00 76 1011.2
20260901114245 80 0.0 0.0 0.00 0.00 0.00 76 1011.2
20260901113245 80 0.0 0.0 0.00 0.00 0.00 76 1011.1
20260901112245 81 0.0 0.0 0.00 0.00 0.00 76 1011.0
20260901111247 81 0.0 1.7 0.00 0.00 0.00 76 1011.0
20260901110245 81 0.0 1.7 0.00 0.00 0.00 75 1010.9
20260901105244 80 0.0 1.7 0.00 0.00 0.00 76 1011.0
20260901104245 80 90 0.9 1.7 0.00 0.00 0.00 75 1010.9
20260901103246 80 0.0 0.0 0.00 0.00 0.00 75 1011.1
20260901102244 80 0.0 0.0 0.00 0.00 0.00 74 1011.0
20260901101249 80 0.0 0.0 0.00 0.00 0.00 74 1011.1
20260901100244 80 0.0 0.0 0.00 0.00 0.00 73 1011.1
20260901095316 80 0.0 0.0 0.00 0.00 0.00 72 1011.1
20260901094246 80 0.0 0.0 0.00 0.00 0.00 72 1011.1
20260901093306 80 90 0.9 3.5 0.00 0.00 0.00 72 1011.2
20260901092249 80 0.0 0.0 0.00 0.00 0.00 72 1011.2
20260901091244 80 0.0 2.6 0.00 0.00 0.00 72 1011.4
20260901090244 80 90 0.9 2.6 0.00 0.00 0.00 71 1011.6
20260901085244 80 0.0 1.7 0.00 0.00 0.00 71 1011.4
20260901084245 80 0.0 0.9 0.00 0.00 0.00 71 1011.3
20260901083244 80 90 0.9 2.6 0.00 0.00 0.00 71 1011.4
20260901082244 80 0.0 0.0 0.00 0.00 0.00 70 1011.3
20260901081246 80 90 1.7 3.5 0.00 0.00 0.00 70 1011.4
20260901080244 80 90 0.9 2.6 0.00 0.00 0.00 70 1011.4
20260901075246 80 90 0.9 2.6 0.00 0.00 0.00 70 1011.3
20260901074245 81 0.0 2.6 0.00 0.00 0.00 69 1011.3
20260901073244 81 0.0 0.0 0.00 0.00 0.00 68 1011.2
20260901072328 81 0.0 1.7 0.00 0.00 0.00 68 1011.2
20260901071244 81 90 0.9 1.7 0.00 0.00 0.00 68 1011.0
20260901070244 81 90 0.9 2.6 0.00 0.00 0.00 68 1011.1
20260901065244 81 90 1.7 2.6 0.00 0.00 0.00 68 1011.1
20260901064245 81 112 1.7 5.2 0.00 0.00 0.00 68 1011.2
20260901063246 82 157 1.7 5.2 0.00 0.00 0.00 68 1011.1
20260901062245 82 90 1.7 3.5 0.00 0.00 0.00 67 1011.1
20260901061309 82 112 1.7 5.2 0.00 0.00 0.00 68 1011.2
20260901060243 82 90 0.9 3.5 0.00 0.00 0.00 69 1011.5
20260901055244 82 90 0.9 2.6 0.00 0.00 0.00 68 1011.6
20260901054244 83 90 1.7 3.5 0.00 0.00 0.00 67 1011.3
20260901053247 83 90 2.6 5.2 0.00 0.00 0.00 66 1011.5
20260901052308 84 90 1.7 5.2 0.00 0.00 0.00 64 1012.0
20260901051246 84 90 2.6 6.1 0.00 0.00 0.00 63 1012.1
20260901050246 84 67 2.6 6.1 0.00 0.00 0.00 63 1012.3
20260901045246 84 67 3.5 8.7 0.00 0.00 0.00 63 1012.4
20260901044246 84 67 4.3 7.8 0.00 0.00 0.00 64 1012.5
20260901043246 84 67 4.3 7.8 0.00 0.00 0.00 64 1012.6
20260901042245 84 45 5.2 8.7 0.00 0.00 0.00 64 1012.4
20260901041247 84 45 3.5 5.2 0.00 0.00 0.00 64 1012.4
20260901040246 84 67 4.3 8.7 0.00 0.00 0.00 64 1012.3
20260901035245 84 45 5.2 7.8 0.00 0.00 0.00 65 1012.1
20260901034246 84 45 5.2 7.8 0.00 0.00 0.00 68 1012.1
20260901033246 84 45 4.3 8.7 0.00 0.00 0.00 68 1011.9
20260901032245 84 45 4.3 8.7 0.00 0.00 0.00 67 1011.8
20260901031246 84 45 7.0 10.4 0.00 0.00 0.00 65 1011.9
20260901030248 85 22 8.7 13.9 0.00 0.00 0.00 63 1011.7
20260901025312 85 45 7.8 12.2 0.00 0.00 0.00 62 1011.6
20260901024245 85 45 7.0 11.3 0.00 0.00 0.00 64 1011.5
20260901023246 87 45 8.7 13.0 0.00 0.00 0.00 63 1011.1
20260901022246 88 67 3.5 4.3 0.00 0.00 0.00 63 1010.7
20260901021245 88 135 1.7 3.5 0.00 0.00 0.00 62 1010.3
20260901020245 88 0.0 0.0 0.00 0.00 0.00 62 1010.1
20260901015246 89 0.0 1.7 0.00 0.00 0.00 63 1009.9
20260901014247 89 135 0.9 1.7 0.00 0.00 0.00 63 1009.5
20260901013245 90 135 0.9 1.7 0.00 0.00 0.00 61 1009.1
20260901012246 90 135 0.9 2.6 0.00 0.00 0.00 61 1008.8
20260901011245 90 135 0.9 2.6 0.00 0.00 0.00 60 1008.7
20260901010307 90 112 2.6 5.2 0.00 0.00 0.00 60 1008.7
20260901005245 90 67 2.6 4.3 0.00 0.00 0.00 60 1008.6
20260901004245 90 45 2.6 4.3 0.00 0.00 0.00 60 1008.7
20260901003245 90 45 4.3 9.6 0.00 0.00 0.00 58 1009.1
20260901002306 89 22 7.8 10.4 0.00 0.00 0.00 57 1009.5
20260901001247 88 22 10.4 14.8 0.00 0.00 0.00 57 1009.4
20260901000314 88 22 10.4 16.5 0.00 0.00 0.00 57 1009.6
20260831235307 94 0 4.3 15.6 0.00 0.00 0.00 52 1009.8
20260831234245 95 225 5.2 9.6 0.00 0.00 0.00 53 1008.8
20260831233246 95 180 7.8 13.0 0.00 0.00 0.00 51 1008.7